0 HST 1 20580U 90037B 25346.98803157 .00010337 00000-0 35884-3 0 9990 2 20580 28.4685 270.7996 0001785 242.3546 117.6868 15.28057436760031 0 ISS (ZARYA) 1 25544U 98067A 25346.86355306 .00014033 00000-0 25741-3 0 9999 2 25544 51.6304 141.8664 0003245 240.6311 119.4354 15.49550036542873 0 CXO 1 25867U 99040B 25349.26321703 .00000427 00000-0 00000-0 0 9990 2 25867 53.0917 122.4070 8132318 310.8570 0.2053 0.37806491 16624